Location: Weymouth Pines Observatory
(42.9326°N, 81.3883°W)
Time: 00:09:57
(UTC-04:00)

Daily predictions for brighter satellites

Satellite Brightness Start Highest point End
(mag) Time Altitude Azimuth Time Altitude Azimuth Time Altitude Azimuth
ADEOS II 4.2 04:02:07 10° NE 04:05:19 22° ENE 04:05:19 22° ENE
Cosmos 2369 Rocket 3.8 04:16:04 32° ENE 04:16:04 32° ENE 04:19:29 10° NE
CENTAUR R/B 4.1 04:23:32 27° N 04:23:32 27° N 04:27:42 10° NNE
Okean O Rocket 4.5 04:20:43 10° ENE 04:22:53 13° E 04:24:03 12° ESE
Lacrosse 5 3.4 04:46:17 30° NNE 04:46:17 30° NNE 04:48:57 10° NE
Cosmos 2184 Rocket 4.2 04:51:49 10° N 04:58:06 69° E 05:04:17 10° SSE
Milstar 3 4.0 05:05:11 25° S 05:05:15 25° S 05:10:55 10° SE
CZ-4B R/B 4.3 05:09:32 10° NNE 05:14:41 42° E 05:19:53 10° S
Tiangong 2 3.8 05:18:05 20° E 05:18:05 20° E 05:19:11 10° E
Meteor 1-21 4.2 05:22:03 65° WNW 05:22:03 65° WNW 05:27:31 10° N
CZ-4C R/B 3.0 05:17:57 18° NNW 05:23:33 78° NE 05:31:33 10° SE
Cosmos 44 3.4 05:23:37 61° NNE 05:24:10 68° NE 05:28:56 10° SE
Cosmos 1943 Rocket 2.0 05:23:57 70° SSW 05:24:37 87° WNW 05:30:13 10° NNE
MOS 1-B 4.2 05:21:13 10° NNE 05:27:00 76° WNW 05:28:18 54° SW
Cosmos 2263 4.1 05:33:51 61° W 05:34:20 64° WNW 05:39:56 10° NNE
APEX 4.5 05:33:59 26° NNE 05:35:27 39° ENE 05:39:27 10° SE
Cosmos 44 Rocket 3.2 05:35:12 46° NNW 05:36:39 84° ENE 05:41:35 10° SE
USA 215 4.4 05:32:14 10° NE 05:37:39 29° NNW 05:39:59 23° NW
Cosmos 1825 Rocket 3.7 05:35:39 24° S 05:38:14 71° E 05:42:39 10° NNE
Cosmos 2074 Rocket 4.0 05:33:11 10° NNW 05:39:18 56° W 05:45:25 10° SSW
Nadezhda 1 Rocket 3.9 05:34:19 10° S 05:40:43 79° W 05:47:08 10° N
SJ 16-02 4.3 05:40:58 10° SE 05:43:52 17° E 05:46:46 10° NE
CZ-4B R/B 4.2 05:40:21 10° N 05:42:00 25° N 05:42:00 25° N
Cosmos 1470 2.7 05:42:02 10° N 05:45:58 83° E 05:49:51 10° S
ADEOS II 2.3 05:41:14 10° N 05:46:13 45° WNW 05:46:15 45° WNW
PSLV R/B 3.6 05:42:06 10° N 05:45:58 57° NW 05:45:58 57° NW
Meteor PRIRODA 4.1 05:44:27 10° NNE 05:48:11 61° E 05:51:51 10° S
Cosmos 1340 Rocket 2.7 05:51:46 51° SSW 05:52:41 75° W 05:56:47 10° N
Shenzhou-11 Module 2.9 05:55:35 40° SSE 05:55:35 40° SSE 05:57:54 10° ESE
USA 229 DEB 3.6 05:50:33 23° SW 05:55:08 87° NW 06:02:07 10° NE
NOSS 3-1 (C) 4.3 05:49:47 10° S 05:55:10 47° ESE 06:01:11 10° NE
USA 229 3.6 05:50:36 22° SW 05:55:13 88° NW 06:02:12 10° NE
Meteor 1-31 Rocket 3.0 05:54:19 10° NNE 05:58:08 69° ESE 06:01:54 10° S
Cosmos 2369 Rocket 3.0 05:57:54 31° WNW 05:58:18 31° NW 06:03:20 10° N
Okean O Rocket 1.6 05:55:18 10° N 05:59:37 59° WNW 06:01:30 31° SW
IRS-1C Rocket 4.0 05:58:00 10° NNE 06:03:19 84° WNW 06:08:35 10° SSW
Cosmos 2154 Rocket 4.0 06:00:56 10° NNW 06:07:12 64° W 06:13:25 10° S
Okean-O 3.9 06:05:09 10° NNE 06:09:23 42° E 06:13:35 10° S
USA 267 4.5 06:05:48 10° SSW 06:10:03 20° SW 06:10:03 20° SW
USA 116 3.5 06:07:49 10° SSE 06:11:15 80° ENE 06:15:08 10° N
Meteor 2-5 Rocket 4.1 06:05:48 10° S 06:11:42 73° E 06:17:32 10° NNE
Cosmos 2150 Rocket 4.1 06:10:21 20° SW 06:13:48 53° WNW 06:19:01 10° NNE
DELTA 2 R/B(2) 4.5 06:14:13 37° S 06:14:26 38° SSE 06:17:30 10° E
Cosmos 1707 2.7 06:11:23 10° SSW 06:15:15 62° W 06:19:10 10° N
Cosmos 1833 4.4 06:11:13 10° NW 06:16:30 44° WSW 06:21:45 10° S
CZ-4B R/B 4.0 06:12:58 10° N 06:17:22 75° WNW 06:21:51 10° SSW
Cosmos 2219 3.5 06:15:39 10° NNW 06:21:21 70° ENE 06:26:57 10° SSE
Cosmos 1898 Rocket 4.3 06:20:28 25° W 06:22:03 29° WNW 06:26:35 10° N
Cosmos 1758 Rocket 3.7 06:18:23 10° SSW 06:22:44 50° WNW 06:27:08 10° N
PAYLOAD B 4.5 06:17:55 10° N 06:23:09 45° WNW 06:28:21 10° SW
SL-8 Rocket 4.2 06:17:40 10° N 06:24:01 79° E 06:30:20 10° S
Cosmos 1356 Rocket 3.4 06:20:48 10° S 06:25:03 87° W 06:29:24 10° N
OAO 2 Rocket 4.4 06:22:42 19° SW 06:25:33 33° S 06:29:58 10° ESE
Cosmos 1937 Rocket 4.1 06:23:49 19° WSW 06:27:02 37° WNW 06:31:57 10° N
NOAA 6 4.5 06:22:22 10° NNE 06:27:33 67° ESE 06:32:39 10° S
Lacrosse 5 3.5 06:25:29 15° NW 06:27:53 20° NNW 06:31:38 10° NNE
Cosmos 372 Rocket 4.5 06:27:02 10° S 06:32:09 64° ESE 06:37:21 10° NNE
Cosmos-2242 2.9 06:28:06 10° NNW 06:32:20 64° W 06:36:36 10° S
Cosmos 1125 Rocket 3.8 06:27:26 10° S 06:32:38 71° ESE 06:37:55 10° NNE
Cosmos 1733 4.4 06:30:37 10° NW 06:33:40 22° W 06:36:41 10° SW
EO 1 Del DPAF 3.1 06:31:55 10° S 06:35:43 74° WSW 06:39:34 10° NNW
Cosmos 2297 Rocket 4.0 06:31:27 10° N 06:36:26 31° NE 06:41:23 10° ESE
COSMO-SKYMED 1 2.6 06:33:55 10° SSE 06:38:15 84° ENE 06:42:37 10° NNW
Cosmos 1242 Rocket 3.8 06:38:11 10° NW 06:40:59 21° W 06:43:46 10° SW
Cosmos 1378 3.9 06:37:51 10° SW 06:41:14 31° WNW 06:44:37 10° NNW
CZ-2C R/B 4.2 06:40:08 10° N 06:44:03 72° E 06:57:38 10° S
Meteor 1-16 Rocket 4.3 06:38:49 10° NNW 06:44:19 56° W 06:49:57 10° S
Cosmos 2218 Rocket 4.0 06:38:29 10° N 06:44:44 87° W 06:51:02 10° S
Tiangong 2 1.8 06:50:25 15° W 06:52:44 41° SSW 06:55:47 10° SE
Cosmos 2341 Rocket 4.5 06:48:20 10° NNW 06:54:12 40° W 07:00:04 10° SSW
Cosmos 1842 Rocket 3.6 06:50:12 10° N 06:54:36 88° ENE 06:58:57 10° S
CZ-4B R/B 4.0 06:50:29 10° N 06:55:03 28° WNW 06:59:41 10° WSW
In-Cosmos 22 4.3 06:49:40 10° S 06:55:14 89° ESE 07:01:00 10° N
Cosmos 1656 Rocket 4.2 06:50:12 10° SW 06:55:28 38° WNW 07:00:47 10° N
GPS 2-04 Rocket1 4.4 06:54:08 10° WSW 06:56:51 19° SSW 06:59:29 10° SSE
ERBS 3.0 06:54:34 10° NW 06:57:58 54° NE 07:01:22 10° ESE
Cosmos 2181 Rocket 4.3 06:54:18 10° SSW 07:00:15 45° WNW 07:06:10 10° N
Cosmos 1048 Rocket 4.0 06:57:32 10° NNW 07:02:40 63° WSW 07:07:49 10° S
CZ-3 R/B 4.2 06:47:54 11° W 07:03:24 24° SW 07:10:16 10° S
Cosmos 2221 3.7 06:59:52 10° N 07:04:09 49° ENE 07:08:24 10° SSE
Cosmos 1943 Rocket 3.8 07:05:58 10° W 07:09:13 16° NW 07:12:31 10° N
CZ-4C R/B 3.9 07:05:52 10° WNW 07:11:44 26° WSW 07:17:58 10° SSW
Meteor 1-28 Rocket 4.5 07:09:16 10° SW 07:12:13 21° W 07:15:11 10° NW
Meteor 2-8 Rocket 4.5 07:09:54 10° S 07:16:03 83° W 07:22:13 10° N
